India Forums Logo

Phir Subah Hogi

India Forums > Forum Index > Phir Subah Hogi
Phir Subah Hogi
...
<< | 22 | 23 | 24 | 25 | 26 | 27 | 28 | 29 | 30 | 31 | 32 | 33 | 34 | 35 | 36 | 37 | 38 | 39 | 40 | ... >>
TIDTopic SubjectStart DateLast Entry
3318135Today's episode11/29/2012 11:11:32 AM11/29/2012 11:11:32 AM
3318215Precap11/29/2012 11:35:51 AM11/29/2012 11:44:31 AM
3318282ZRA PROMO 2012 -Varun, Nandish,Gulki, Kri11/29/2012 12:13:26 PM11/29/2012 12:18:45 PM
3318306So the Bold is finally here!11/29/2012 12:31:20 PM11/30/2012 1:01:53 AM
3318425Rewa seducing Vikram11/29/2012 2:21:49 PM11/29/2012 2:35:45 PM
3318455PSH-29thNov12-Video-Update+PRECAP *HDQ*11/29/2012 3:09:26 PM11/29/2012 3:09:26 PM
3318625Gulabiya gyrates11/29/2012 6:27:05 PM11/30/2012 5:53:55 AM
3318735~*PSH WU 29th Nov Kuhu DV Marry/Consummate*~11/29/2012 9:00:48 PM11/30/2012 10:50:09 AM
3318830Do you think Sugni will lose her virginity to TVS11/29/2012 10:39:47 PM11/30/2012 3:23:02 PM
3319003why no one say any thing about Digvijay?..11/30/2012 1:09:46 AM11/30/2012 3:24:09 PM
3319029IBN 7 Adi in boxing ring11/30/2012 1:32:40 AM12/2/2012 9:55:51 AM
3319266Aditya-Sugni paying off the debt.11/30/2012 4:11:50 AM12/1/2012 2:40:52 AM
3319436Nandish on cover11/30/2012 6:06:41 AM11/30/2012 8:08:58 AM
331964230th Nov Phir Subah Hogi *IBN7-E24 Segment* WO/DL11/30/2012 7:47:30 AM11/30/2012 7:47:30 AM
3320252TVS what a thakur.11/30/2012 10:58:41 AM12/3/2012 9:58:38 AM
3320333TVS backs on monday for Revenge11/30/2012 11:41:12 AM12/1/2012 12:20:43 AM
3320437PSH-30thNov12-Video-Update+PRECAP *HDQ*11/30/2012 12:54:27 PM11/30/2012 3:17:44 PM
3320460After tonights episode-Do U feel Sorry for Sugni?11/30/2012 1:11:45 PM12/7/2012 12:56:29 PM
3320474Suhagraat pe Suhagraat11/30/2012 1:22:04 PM12/2/2012 1:15:27 AM
3320500Kuhu and Digvijay11/30/2012 1:39:32 PM12/1/2012 4:03:38 AM
3320517Local dangal (fight club)11/30/2012 1:57:40 PM11/30/2012 3:39:49 PM
3320531Aditya's perfect and apt reply to Vikram11/30/2012 2:10:09 PM12/2/2012 7:10:36 AM
3320716The battle lines are drawn pick your side! [pg. 2]11/30/2012 6:41:47 PM12/3/2012 3:42:01 AM
3320756WHO SAVES SUGNI KI IZZAT11/30/2012 7:52:18 PM12/3/2012 11:18:15 AM
3320837~*PSH WU 30th Nov Mahaepisode*~11/30/2012 9:52:41 PM12/6/2012 2:22:57 PM
3320989What will happen if...12/1/2012 12:06:32 AM12/6/2012 4:14:53 AM
3321027Excellent, fantastic, fabulous12/1/2012 12:42:21 AM12/3/2012 6:58:48 AM
3321062Worst tv show12/1/2012 1:14:37 AM12/3/2012 7:20:33 PM
3321379GOTW : Greatest Love Stories12/1/2012 4:30:39 AM12/12/2012 6:37:23 AM
3321997A Man's Scorn12/1/2012 9:42:47 AM12/2/2012 12:49:39 AM
3322403Who will Save **Sugni Ki IZZAT** ?12/1/2012 1:55:46 PM12/3/2012 2:54:04 AM
3322528TRPs will be back soon, so focus is back on Vikram12/1/2012 4:53:11 PM12/2/2012 3:45:27 PM
3322910Flops - Nandesh and Aditya12/2/2012 1:50:33 AM12/2/2012 12:46:25 PM
3323006Sugni's EGO12/2/2012 3:27:22 AM12/2/2012 3:40:40 PM
3323158Phir Subah hogi - TVS story Not Sugni12/2/2012 5:40:59 AM12/2/2012 3:26:14 PM
3323280Future destiny of Sugini12/2/2012 7:28:11 AM12/2/2012 7:38:42 AM
3323449NANDISH...ROCKS12/2/2012 9:22:15 AM1/3/2013 1:08:20 AM
3323576Possible Future track- Attempt on Sugni's life12/2/2012 10:30:30 AM12/2/2012 11:23:21 AM
3323665Gulabiya... Best mother!!!12/2/2012 11:27:01 AM12/6/2012 4:42:28 PM
3323744Adi - Best Son Award :()()() - note pg. 512/2/2012 12:34:57 PM12/4/2012 4:11:49 PM
3323754Zee Rishtey Award 2012-2ndDec-VideoUpdate *720pHD*12/2/2012 12:45:40 PM12/2/2012 3:56:48 PM
3323879OMG - Kuhu and Digvijay12/2/2012 4:18:57 PM12/3/2012 5:15:58 AM
3324097WOW..WOW..ADI/Nandish12/2/2012 10:42:41 PM12/3/2012 5:25:27 AM
3324131COOL...NANDISH--ADitya T12/2/2012 11:26:20 PM12/3/2012 3:17:18 PM
3324463name of the song... pls12/3/2012 4:06:04 AM12/3/2012 4:58:58 AM
3324540Rangmunch- Zee Awards Nostalgic12/3/2012 5:14:10 AM12/3/2012 6:09:15 AM
3324632Varun Badola In ZRA awards - Pics12/3/2012 6:27:55 AM12/3/2012 6:32:39 AM
3324829I LOVE It...Do u12/3/2012 8:14:08 AM12/4/2012 6:41:31 AM
3325269Today's episode12/3/2012 11:04:34 AM12/3/2012 11:04:34 AM
3325282unpredictable precap...12/3/2012 11:10:52 AM12/5/2012 6:49:27 AM
3325339PSH-3rdDec12-Video-Update+PRECAP *HDQ*12/3/2012 11:43:15 AM12/3/2012 10:39:03 PM
3325559Vikram is saved if ever...12/3/2012 2:51:56 PM12/4/2012 2:56:37 AM
3325598Only for Adi fans! Please answer some questions!12/3/2012 4:09:22 PM12/15/2012 10:44:46 PM
3325685Here we go again sita mai [note p.2]12/3/2012 6:29:49 PM12/4/2012 3:15:45 PM
3325815Disturbed and stunned12/3/2012 9:17:51 PM12/4/2012 11:04:20 AM
3325918Nandish on magazine cover12/3/2012 10:42:51 PM12/3/2012 10:42:51 PM
3325945~*PSH WU 3rd Dec SugVi Night*~12/3/2012 10:59:25 PM12/6/2012 2:26:01 PM
3326373PSH NL Express #512/4/2012 3:22:55 AM12/5/2012 8:24:13 PM
3326475closed...12/4/2012 4:40:28 AM12/4/2012 12:10:34 PM
3326743A humble request - RAPE12/4/2012 6:52:23 AM12/5/2012 1:26:09 AM
3326844Vikram-Rewa relationship - a request to creatives12/4/2012 7:36:17 AM12/4/2012 4:49:10 PM
3327006Nandish @Colors Gold petal Awards12/4/2012 8:58:27 AM12/5/2012 12:42:20 PM
3327144Reply to humble Request-RAPE12/4/2012 9:54:20 AM12/4/2012 10:55:25 PM
3327306Breaking News-Suhaagraat12/4/2012 11:01:09 AM12/10/2012 5:16:30 AM
3327337WU 4 12 12,one night stand and aftereffects12/4/2012 11:14:08 AM12/6/2012 2:29:48 PM
3327423culprits and Idiots12/4/2012 12:00:56 PM12/4/2012 1:01:57 PM
3327552how low they can go.?12/4/2012 1:37:01 PM12/4/2012 1:47:40 PM
3327575PSH-4thDec12-Video-Update+PRECAP *HDQ*12/4/2012 1:54:11 PM12/4/2012 1:54:11 PM
3327598PORTEST POST 5!!! Disgustig CV's12/4/2012 2:20:46 PM12/4/2012 11:53:45 PM
3327610so..let me get this straight???12/4/2012 2:44:51 PM12/4/2012 4:13:04 PM
3327625Enough is enough!12/4/2012 3:10:24 PM12/4/2012 3:10:24 PM
3327690No sympathy for Sugni12/4/2012 4:55:52 PM12/5/2012 11:25:55 AM
3327758Is Rewa mentally disturbed or not?12/4/2012 5:58:31 PM12/5/2012 6:52:49 AM
3327798Blame Zeetv12/4/2012 7:23:55 PM12/5/2012 6:48:06 AM
3327960Technically, it is NOT rape12/4/2012 10:28:23 PM12/5/2012 10:56:40 AM
<< | 22 | 23 | 24 | 25 | 26 | 27 | 28 | 29 | 30 | 31 | 32 | 33 | 34 | 35 | 36 | 37 | 38 | 39 | 40 | ... >>